IRNSS-1D

Last updated on Tue Aug 26 2025 00:02:48 GMT+0000 (Coordinated Universal Time)

1 40547U 15018A 25237.54600905 .00000014 00000+0 00000+0 0 9996 2 40547 20.1858 244.5889 0013126 344.0626 23.1403 0.97965526 38018
UTC large
Height (km)
Speed (km/s)
/
Latitude / Longitude
Inclination (degrees)
Orbital Period (minutes)
Azimuth
Elevation
Range (km)
Doppler Factor

Next 0 passes for location: London (51.5072 / 0.1276)

Sorry there are no passes over London.
IRNSS-1D